Date_and_time,latitude,longitude,wind_speed,RelWindDirFrom,WindDirFrom,air_pressure,air_temperature,relative_humidity,Temp,platform_speed_wrt_ground,air_pressure_at_mean_sea_level,platform_orientation
2019-04-05 00:00,50.630435,-96.9807683333333,20.8,28.1,177,984.60,1.2,102,1.64,0.0,1012.30,142.0
2019-04-05 00:10,50.6304366666667,-96.9807666666667,19.7,24.2,178,984.55,1.1,102,1.62,0.0,1012.25,142.0
2019-04-05 00:20,50.6304366666667,-96.9807683333333,19.3,25.8,179,984.43,1.1,102,1.60,0.0,1012.12,142.0
2019-04-05 00:30,50.6304383333333,-96.9807683333333,19.6,24.8,179,984.25,1.2,102,1.60,0.0,1011.94,142.0
2019-04-05 00:40,50.6304366666667,-96.9807683333333,19.4,26.1,180,984.11,1.1,103,1.61,0.0,1011.79,142.0
2019-04-05 00:50,50.6304383333333,-96.9807683333333,20.4,26.7,180,983.94,1.1,103,1.61,0.0,1011.62,142.0
2019-04-05 01:00,50.63043,-96.980775,18.6,24.9,181,983.92,1.1,104,1.61,0.0,1011.58,212.5
2019-04-05 01:10,50.6304483333333,-96.9807733333333,18.7,25.4,183,983.85,1.0,104,1.61,0.0,1011.50,212.5
2019-04-05 01:20,50.6304283333333,-96.9807683333333,18.0,24.7,185,983.85,1.0,104,1.60,0.0,1011.50,212.5
2019-04-05 01:30,50.6304233333333,-96.980765,17.0,22.0,187,983.90,1.0,104,1.60,0.0,1011.54,212.5
2019-04-05 01:40,50.6304266666667,-96.980765,17.3,25.1,189,983.89,1.1,104,1.61,0.0,1011.53,212.5
2019-04-05 01:50,50.6304166666667,-96.9807783333333,15.9,21.5,188,984.03,1.1,104,1.62,0.0,1011.67,212.5
2019-04-05 02:00,50.6304283333333,-96.9807766666667,16.5,23.3,188,984.05,1.1,104,1.64,0.0,1011.69,203.5
2019-04-05 02:10,50.6304366666667,-96.980775,15.3,20.6,189,984.19,1.2,104,1.65,0.0,1011.82,203.5
2019-04-05 02:20,50.6304366666667,-96.980775,16.5,21.8,187,984.18,1.4,104,1.65,0.0,1011.80,203.5
2019-04-05 02:30,50.6304333333333,-96.980775,13.3,19.3,191,984.37,1.5,104,1.65,0.0,1012.00,203.5
2019-04-05 02:40,50.6304616666667,-96.98077,12.2,18.5,192,984.50,1.5,103,1.66,0.0,1012.14,203.5
2019-04-05 02:50,50.6304516666667,-96.98077,10.7,15.2,196,984.73,1.6,103,1.65,0.0,1012.37,203.5
2019-04-05 03:00,50.63041,-96.9807733333333,6.6,11.2,223,985.05,1.6,103,1.63,0.0,1012.70,193.3
2019-04-05 03:10,50.6304266666667,-96.980765,7.2,10.3,215,985.21,1.6,103,1.62,0.0,1012.86,193.3
2019-04-05 03:20,50.6304433333333,-96.9807833333333,6.8,11.1,222,985.34,1.7,103,1.61,0.0,1013.00,193.3
2019-04-05 03:30,50.6304633333333,-96.98081,7.5,10.2,215,985.34,1.6,103,1.62,0.0,1013.00,193.3
2019-04-05 03:40,50.6304433333333,-96.9807733333333,6.2,10.6,212,985.34,1.7,103,1.62,0.0,1012.99,193.3
2019-04-05 03:50,50.6304166666667,-96.9807683333333,6.4,9.7,223,985.33,1.7,103,1.63,0.0,1012.98,193.3
2019-04-05 04:00,50.6304316666667,-96.9807683333333,7.4,10.8,214,985.24,1.8,102,1.65,0.0,1012.87,12.6
2019-04-05 04:10,50.630435,-96.9807633333333,7.1,9.0,211,985.26,1.8,102,1.66,0.0,1012.89,12.6
2019-04-05 04:20,50.630435,-96.980765,7.6,13.5,208,985.13,1.8,102,1.66,0.0,1012.75,12.6
2019-04-05 04:30,50.630435,-96.9807683333333,8.1,12.9,212,985.11,1.8,103,1.65,0.0,1012.72,12.6
2019-04-05 04:40,50.630435,-96.9807716666667,9.4,12.9,212,985.13,2.0,102,1.64,0.0,1012.73,12.6
2019-04-05 04:50,50.63043,-96.9807733333333,8.9,11.5,211,985.20,2.0,103,1.63,0.0,1012.81,12.6
2019-04-05 05:00,50.630425,-96.98079,8.7,11.1,209,985.24,1.9,103,1.63,0.0,1012.85,270.0
2019-04-05 05:10,50.6304316666667,-96.98079,7.9,11.2,212,985.27,1.9,103,1.63,0.0,1012.88,270.0
2019-04-05 05:20,50.630435,-96.980785,8.5,10.7,214,985.36,1.8,103,1.64,0.0,1012.98,270.0
2019-04-05 05:30,50.6304366666667,-96.9807833333333,7.4,9.8,214,985.42,1.8,103,1.64,0.0,1013.04,270.0
2019-04-05 05:40,50.6304566666667,-96.9807933333333,5.9,8.0,219,985.53,1.7,103,1.62,0.0,1013.15,270.0
2019-04-05 05:50,50.630445,-96.98079,5.4,7.4,218,985.62,1.7,103,1.64,0.0,1013.24,270.0
2019-04-05 06:00,50.6304433333333,-96.9807833333333,6.1,7.8,212,985.59,1.6,103,1.65,0.0,1013.22,336.5
2019-04-05 06:10,50.630445,-96.98078,5.8,7.7,215,985.56,1.6,103,1.67,0.0,1013.19,336.5
2019-04-05 06:20,50.63044,-96.980795,4.3,5.6,223,985.59,1.6,103,1.66,0.0,1013.21,336.5
2019-04-05 06:30,50.630445,-96.9807866666667,4.1,5.2,223,985.62,1.6,103,1.65,0.0,1013.23,336.5
2019-04-05 06:40,50.6304466666667,-96.9807833333333,3.8,5.4,227,985.64,1.6,103,1.65,0.0,1013.26,336.5
2019-04-05 06:50,50.6304483333333,-96.9807416666667,3.5,4.4,227,985.70,1.6,103,1.65,0.0,1013.32,336.5
2019-04-05 07:00,50.630455,-96.98077,3.4,4.8,227,985.82,1.5,103,1.66,0.0,1013.45,25.7
2019-04-05 07:10,50.63045,-96.980775,2.9,3.8,244,985.93,1.6,103,1.65,0.0,1013.56,25.7
2019-04-05 07:20,50.630445,-96.9807733333333,3.3,4.5,243,986.00,1.6,103,1.65,0.0,1013.63,25.7
2019-04-05 07:30,50.6304416666667,-96.9807733333333,3.5,4.5,244,986.04,1.6,103,1.63,0.0,1013.68,25.7
2019-04-05 07:40,50.6304383333333,-96.980765,3.3,4.7,253,986.05,1.6,103,1.64,0.0,1013.69,25.7
2019-04-05 07:50,50.6304516666667,-96.9807916666667,3.7,5.1,257,986.05,1.7,103,1.65,0.0,1013.69,25.7
2019-04-05 08:00,50.630435,-96.9807783333333,3.3,5.2,292,986.06,1.8,103,1.66,0.0,1013.70,41.3
2019-04-05 08:10,50.6304316666667,-96.9807733333333,4.5,7.8,308,986.10,1.8,103,1.66,0.0,1013.73,41.3
2019-04-05 08:20,50.6304283333333,-96.9807716666667,5.9,8.0,331,986.15,1.7,103,1.66,0.0,1013.80,41.3
2019-04-05 08:30,50.6304283333333,-96.98077,6.1,8.0,338,986.25,1.6,103,1.65,0.0,1013.90,41.3
2019-04-05 08:40,50.63043,-96.98077,8.6,12.1,343,986.30,1.5,103,1.66,0.0,1013.97,41.3
2019-04-05 08:50,50.6304316666667,-96.98077,7.6,11.2,342,986.41,1.3,103,1.65,0.0,1014.09,41.3
2019-04-05 09:00,50.6304316666667,-96.98077,8.5,12.5,341,986.45,1.2,104,1.65,0.0,1014.12,124.8
2019-04-05 09:10,50.630435,-96.98077,9.2,13.4,347,986.54,1.1,104,1.65,0.0,1014.22,124.8
2019-04-05 09:20,50.6304533333333,-96.9807633333333,8.9,13.3,343,986.67,1.1,104,1.64,0.0,1014.36,124.8
2019-04-05 09:30,50.6304433333333,-96.9807616666667,8.8,12.4,347,986.69,0.9,104,1.64,0.0,1014.38,124.8
2019-04-05 09:40,50.6304416666667,-96.9807633333333,10.0,12.5,353,986.59,0.8,103,1.65,0.0,1014.29,124.8
2019-04-05 09:50,50.6304416666667,-96.9807666666667,8.5,11.3,355,986.62,0.6,103,1.65,0.0,1014.32,124.8
2019-04-05 10:00,50.63044,-96.9807683333333,8.9,12.6,354,986.69,0.5,103,1.65,0.0,1014.40,142.0
2019-04-05 10:10,50.6304383333333,-96.9807683333333,9.2,12.2,352,986.82,0.5,103,1.65,0.0,1014.54,142.0
2019-04-05 10:20,50.63043,-96.9807666666667,9.5,13.1,349,986.86,0.5,103,1.65,0.0,1014.59,142.0
2019-04-05 10:30,50.630445,-96.9807633333333,11.1,15.0,350,986.94,0.5,103,1.65,0.0,1014.67,142.0
2019-04-05 10:40,50.6304366666667,-96.9807566666667,11.6,16.3,353,986.97,0.5,102,1.63,0.0,1014.72,142.0
2019-04-05 10:50,50.6304416666667,-96.9807483333333,11.3,15.8,345,987.10,0.4,102,1.64,0.0,1014.86,142.0
2019-04-05 11:00,50.630445,-96.9807616666667,11.7,15.5,345,987.23,0.3,102,1.63,0.0,1015.00,73.2
2019-04-05 11:10,50.6304433333333,-96.9807616666667,11.4,14.9,346,987.33,0.3,101,1.62,0.0,1015.11,73.2
2019-04-05 11:20,50.6304466666667,-96.9807633333333,9.2,13.1,339,987.55,0.2,101,1.63,0.0,1015.34,73.2
2019-04-05 11:30,50.6304483333333,-96.9807616666667,10.9,15.1,335,987.71,0.1,102,1.65,0.0,1015.52,73.2
2019-04-05 11:40,50.6304616666667,-96.9807433333333,8.6,13.6,331,987.91,0.0,102,1.66,0.0,1015.74,73.2
2019-04-05 11:50,50.63044,-96.980775,8.8,12.2,334,987.97,0.1,101,1.66,0.0,1015.81,73.2
2019-04-05 12:00,50.6304416666667,-96.9807733333333,8.0,14.5,344,988.14,0.0,101,1.65,0.0,1015.98,318.7
2019-04-05 12:10,50.6304433333333,-96.98077,8.2,13.0,339,988.26,-0.1,101,1.65,0.0,1016.11,318.7
2019-04-05 12:20,50.6304433333333,-96.98077,10.1,15.4,341,988.22,-0.2,101,1.65,0.0,1016.08,318.7
2019-04-05 12:30,50.630445,-96.9807683333333,11.4,15.7,345,988.25,-0.3,101,1.65,0.0,1016.12,318.7
2019-04-05 12:40,50.630445,-96.9807683333333,9.6,12.9,337,988.37,-0.4,101,1.66,0.0,1016.25,318.7
2019-04-05 12:50,50.630445,-96.9807666666667,10.3,14.7,335,988.37,-0.7,102,1.66,0.0,1016.26,318.7
2019-04-05 13:00,50.630445,-96.9807666666667,9.3,13.7,336,988.56,-0.9,102,1.66,0.0,1016.47,90.0
2019-04-05 13:10,50.630445,-96.9807666666667,7.6,11.3,335,988.71,-1.0,102,1.66,0.0,1016.64,90.0
2019-04-05 13:20,50.630445,-96.9807683333333,7.3,10.9,324,988.75,-1.2,102,1.66,0.0,1016.70,90.0
2019-04-05 13:30,50.630445,-96.9807683333333,7.4,10.4,326,988.87,-1.3,102,1.63,0.0,1016.82,90.0
2019-04-05 13:40,50.6304416666667,-96.9807683333333,7.4,10.7,320,988.95,-1.3,101,1.62,0.0,1016.91,90.0
2019-04-05 13:50,50.6304383333333,-96.98077,8.2,12.0,313,989.12,-1.6,101,1.62,0.0,1017.10,90.0
2019-04-05 14:00,50.63044,-96.9807716666667,8.2,15.3,318,989.20,-1.7,101,1.63,0.0,1017.19,270.0
2019-04-05 14:10,50.63044,-96.9807716666667,9.8,14.3,320,989.16,-2.0,101,1.64,0.0,1017.18,270.0
2019-04-05 14:20,50.6304416666667,-96.9807733333333,9.3,13.9,327,989.22,-2.0,101,1.65,0.0,1017.24,270.0
2019-04-05 14:30,50.6304566666667,-96.9807833333333,8.0,12.0,320,989.26,-2.0,101,1.66,0.0,1017.29,270.0
2019-04-05 14:40,50.630455,-96.9807816666667,8.5,12.0,319,989.32,-2.2,101,1.66,0.0,1017.38,270.0
2019-04-05 14:50,50.6304483333333,-96.9807716666667,8.1,12.2,317,989.40,-2.3,101,1.67,0.0,1017.47,270.0
2019-04-05 15:00,50.6304466666667,-96.9807716666667,8.6,13.1,324,989.47,-2.3,101,1.67,0.0,1017.56,360.0
2019-04-05 15:10,50.6304483333333,-96.9807716666667,8.6,12.3,323,989.51,-2.3,101,1.65,0.0,1017.60,360.0
2019-04-05 15:20,50.6304483333333,-96.9807716666667,8.6,12.3,311,989.59,-2.5,101,1.65,0.0,1017.70,360.0
2019-04-05 15:30,50.6304466666667,-96.980775,9.2,12.5,314,989.78,-2.5,101,1.65,0.0,1017.89,360.0
2019-04-05 15:40,50.6304466666667,-96.980775,10.3,14.9,322,989.86,-2.5,101,1.65,0.0,1017.99,360.0
2019-04-05 15:50,50.6304433333333,-96.9807733333333,11.0,15.7,320,990.08,-2.5,100,1.65,0.0,1018.23,360.0
2019-04-05 16:00,50.6304466666667,-96.9807683333333,11.2,16.0,310,990.32,-2.7,100,1.65,0.0,1018.50,360.0
2019-04-05 16:10,50.6304466666667,-96.9807666666667,10.7,15.6,310,990.45,-2.8,100,1.65,0.0,1018.64,360.0
2019-04-05 16:20,50.6304466666667,-96.9807666666667,9.3,13.3,311,990.62,-2.9,100,1.65,0.0,1018.82,360.0
2019-04-05 16:30,50.630425,-96.9807616666667,8.1,12.2,305,990.66,-2.9,100,1.66,0.0,1018.87,360.0
2019-04-05 16:40,50.6304366666667,-96.9807683333333,8.5,12.1,306,990.69,-2.8,100,1.66,0.0,1018.90,360.0
2019-04-05 16:50,50.6304383333333,-96.9807733333333,8.4,13.2,298,990.81,-2.8,100,1.65,0.0,1019.02,360.0
2019-04-05 17:00,50.630445,-96.9807683333333,8.7,13.6,312,990.86,-2.6,100,1.65,0.0,1019.06,90.0
2019-04-05 17:10,50.630445,-96.9807666666667,9.1,13.1,316,990.84,-2.5,100,1.64,0.0,1019.05,90.0
2019-04-05 17:20,50.630445,-96.980765,9.1,12.8,318,990.83,-2.3,100,1.63,0.0,1019.03,90.0
2019-04-05 17:30,50.630445,-96.980765,7.6,12.0,313,990.91,-2.0,100,1.61,0.0,1019.10,90.0
2019-04-05 17:40,50.6304466666667,-96.9807633333333,7.9,12.7,327,990.97,-1.9,100,1.61,0.0,1019.14,90.0
2019-04-05 17:50,50.6304466666667,-96.9807633333333,9.1,13.9,325,990.90,-1.7,100,1.62,0.0,1019.07,90.0
2019-04-05 18:00,50.6304466666667,-96.980765,9.6,12.9,315,990.91,-1.7,100,1.64,0.0,1019.09,90.0
2019-04-05 18:10,50.6304516666667,-96.980805,9.8,12.8,311,990.99,-1.7,100,1.65,0.0,1019.18,90.0
2019-04-05 18:20,50.630455,-96.98078,9.1,12.3,303,991.00,-1.6,100,1.65,0.0,1019.19,90.0
2019-04-05 18:30,50.6304466666667,-96.98078,8.3,11.7,310,991.01,-1.5,100,1.65,0.0,1019.18,90.0
2019-04-05 18:40,50.6304366666667,-96.98076,8.9,13.1,311,990.93,-1.4,100,1.65,0.0,1019.10,90.0
2019-04-05 18:50,50.6304483333333,-96.9807716666667,8.3,12.5,317,990.85,-1.2,100,1.62,0.0,1018.99,90.0
2019-04-05 19:00,50.6304466666667,-96.980765,9.4,12.9,322,990.77,-1.2,100,1.61,0.0,1018.91,0.0
2019-04-05 19:10,50.6304466666667,-96.980765,8.7,14.4,337,990.78,-1.0,99,1.61,0.0,1018.90,0.0
2019-04-05 19:20,50.630445,-96.9807633333333,11.0,13.7,0,990.77,-1.1,99,1.61,0.0,1018.88,0.0
2019-04-05 19:30,50.630445,-96.9807633333333,10.5,14.5,2,990.87,-1.2,100,1.61,0.0,1018.98,0.0
2019-04-05 19:40,50.6304283333333,-96.9807266666667,10.5,13.4,8,990.89,-1.4,100,1.62,0.0,1019.00,0.0
2019-04-05 19:50,50.630445,-96.98077,9.8,12.3,5,990.90,-1.3,100,1.62,0.0,1019.00,0.0
2019-04-05 20:00,50.630445,-96.9807616666667,10.5,13.3,7,990.93,-1.4,100,1.61,0.0,1019.04,90.0
2019-04-05 20:10,50.6304483333333,-96.9807666666667,9.6,12.1,5,990.92,-1.3,100,1.61,0.0,1019.03,90.0
2019-04-05 20:20,50.6304466666667,-96.9807666666667,7.9,11.6,355,990.95,-1.4,99,1.62,0.0,1019.05,90.0
2019-04-05 20:30,50.6304466666667,-96.9807683333333,9.2,11.7,1,990.98,-1.4,99,1.62,0.0,1019.08,90.0
2019-04-05 20:40,50.6304466666667,-96.9807666666667,7.8,10.2,2,991.03,-1.4,99,1.63,0.0,1019.11,90.0
2019-04-05 20:50,50.6304466666667,-96.9807666666667,6.1,9.0,319,991.15,-1.4,99,1.64,0.0,1019.23,90.0
2019-04-05 21:00,50.6304466666667,-96.9807666666667,7.8,10.5,315,991.22,-1.5,99,1.65,0.0,1019.31,0.0
2019-04-05 21:10,50.6304583333333,-96.9807566666667,6.9,12.0,336,991.37,-1.4,99,1.63,0.0,1019.47,0.0
2019-04-05 21:20,50.630455,-96.980765,8.3,11.5,1,991.18,-1.5,99,1.64,0.0,1019.28,0.0
2019-04-05 21:30,50.6304533333333,-96.980765,8.7,12.2,5,991.11,-1.5,99,1.64,0.0,1019.23,0.0
2019-04-05 21:40,50.6304516666667,-96.9807633333333,9.4,12.6,4,991.17,-1.6,99,1.65,0.0,1019.28,0.0
2019-04-05 21:50,50.63045,-96.980765,9.3,11.2,11,991.30,-1.8,99,1.65,0.0,1019.43,0.0
2019-04-05 22:00,50.63045,-96.980765,9.7,11.8,8,991.30,-1.7,99,1.65,0.0,1019.42,360.0
2019-04-05 22:10,50.63045,-96.9807666666667,7.8,10.3,12,991.34,-1.7,99,1.66,0.0,1019.46,360.0
2019-04-05 22:20,50.63045,-96.9807666666667,8.1,11.6,16,991.26,-1.6,99,1.65,0.0,1019.38,360.0
2019-04-05 22:30,50.63045,-96.980765,9.3,12.0,24,991.30,-1.9,99,1.66,0.0,1019.43,360.0
2019-04-05 22:40,50.6304516666667,-96.980765,9.4,10.9,23,991.25,-1.8,99,1.66,0.0,1019.38,360.0
2019-04-05 22:50,50.6304516666667,-96.9807633333333,10.2,12.5,26,991.22,-1.8,99,1.66,0.0,1019.35,360.0
2019-04-05 23:00,50.6304516666667,-96.980765,10.1,11.6,28,991.30,-1.9,99,1.67,0.0,1019.43,360.0
2019-04-05 23:10,50.6304533333333,-96.980765,10.6,12.4,29,991.26,-1.7,99,1.68,0.0,1019.39,360.0
2019-04-05 23:20,50.6304533333333,-96.980765,9.1,12.1,35,991.36,-1.9,99,1.68,0.0,1019.50,360.0
2019-04-05 23:30,50.63043,-96.980765,7.7,9.6,40,991.52,-2.2,99,1.69,0.0,1019.68,360.0
2019-04-05 23:40,50.6304366666667,-96.9807733333333,7.5,8.7,42,991.62,-2.2,99,1.69,0.0,1019.79,360.0
